Year,Month,Day,Hour,Minute,Value (Times are PST for temperature in C)
2012,05,06,00,00,8.20
2012,05,06,00,01,8.20
2012,05,06,00,02,8.20
2012,05,06,00,03,8.20
2012,05,06,00,04,8.20
2012,05,06,00,05,8.10
2012,05,06,00,06,8.10
2012,05,06,00,07,8.10
2012,05,06,00,08,8.10
2012,05,06,00,09,8.00
2012,05,06,00,10,8.00
2012,05,06,00,11,8.00
2012,05,06,00,12,7.90
2012,05,06,00,13,7.90
2012,05,06,00,14,7.90
2012,05,06,00,15,7.90
2012,05,06,00,16,7.90
2012,05,06,00,17,7.80
2012,05,06,00,18,7.80
2012,05,06,00,19,7.80
2012,05,06,00,20,7.80
2012,05,06,00,21,7.80
2012,05,06,00,22,7.80
2012,05,06,00,23,7.80
2012,05,06,00,24,7.80
2012,05,06,00,25,7.80
2012,05,06,00,26,7.90
2012,05,06,00,27,7.90
2012,05,06,00,28,7.90
2012,05,06,00,29,7.90
2012,05,06,00,30,7.90
2012,05,06,00,31,7.90
2012,05,06,00,32,7.80
2012,05,06,00,33,7.80
2012,05,06,00,34,7.80
2012,05,06,00,35,7.80
2012,05,06,00,36,7.80
2012,05,06,00,37,7.80
2012,05,06,00,38,7.80
2012,05,06,00,39,7.80
2012,05,06,00,40,7.70
2012,05,06,00,41,7.70
2012,05,06,00,42,7.60
2012,05,06,00,43,7.60
2012,05,06,00,44,7.60
2012,05,06,00,45,7.50
2012,05,06,00,46,7.50
2012,05,06,00,47,7.40
2012,05,06,00,48,7.40
2012,05,06,00,49,7.40
2012,05,06,00,50,7.30
2012,05,06,00,51,7.30
2012,05,06,00,52,7.30
2012,05,06,00,53,7.30
2012,05,06,00,54,7.20
2012,05,06,00,55,7.20
2012,05,06,00,56,7.10
2012,05,06,00,57,7.10
2012,05,06,00,58,7.00
2012,05,06,00,59,6.90
2012,05,06,01,00,6.90
2012,05,06,01,01,6.80
2012,05,06,01,02,6.80
2012,05,06,01,03,6.80
2012,05,06,01,04,6.80
2012,05,06,01,05,6.80
2012,05,06,01,06,6.80
2012,05,06,01,07,6.80
2012,05,06,01,08,6.80
2012,05,06,01,09,6.80
2012,05,06,01,10,6.70
2012,05,06,01,11,6.70
2012,05,06,01,12,6.70
2012,05,06,01,13,6.70
2012,05,06,01,14,6.60
2012,05,06,01,15,6.60
2012,05,06,01,16,6.60
2012,05,06,01,17,6.60
2012,05,06,01,18,6.60
2012,05,06,01,19,6.60
2012,05,06,01,20,6.50
2012,05,06,01,21,6.50
2012,05,06,01,22,6.60
2012,05,06,01,23,6.60
2012,05,06,01,24,6.60
2012,05,06,01,25,6.50
2012,05,06,01,26,6.40
2012,05,06,01,27,6.40
2012,05,06,01,28,6.40
2012,05,06,01,29,6.40
2012,05,06,01,30,6.40
2012,05,06,01,31,6.40
2012,05,06,01,32,6.40
2012,05,06,01,33,6.40
2012,05,06,01,34,6.40
2012,05,06,01,35,6.40
2012,05,06,01,36,6.40
2012,05,06,01,37,6.40
2012,05,06,01,38,6.40
2012,05,06,01,39,6.40
2012,05,06,01,40,6.40
2012,05,06,01,41,6.40
2012,05,06,01,42,6.40
2012,05,06,01,43,6.30
2012,05,06,01,44,6.30
2012,05,06,01,45,6.30
2012,05,06,01,46,6.30
2012,05,06,01,47,6.30
2012,05,06,01,48,6.20
2012,05,06,01,49,6.20
2012,05,06,01,50,6.20
2012,05,06,01,51,6.20
2012,05,06,01,52,6.20
2012,05,06,01,53,6.20
2012,05,06,01,54,6.20
2012,05,06,01,55,6.20
2012,05,06,01,56,6.20
2012,05,06,01,57,6.20
2012,05,06,01,58,6.20
2012,05,06,01,59,6.20
2012,05,06,02,00,6.20
2012,05,06,02,01,6.20
2012,05,06,02,02,6.20
2012,05,06,02,03,6.20
2012,05,06,02,04,6.20
2012,05,06,02,05,6.20
2012,05,06,02,06,6.20
2012,05,06,02,07,6.20
2012,05,06,02,08,6.20
2012,05,06,02,09,6.20
2012,05,06,02,10,6.20
2012,05,06,02,11,6.10
2012,05,06,02,12,6.10
2012,05,06,02,13,6.10
2012,05,06,02,14,6.10
2012,05,06,02,15,6.00
2012,05,06,02,16,6.00
2012,05,06,02,17,6.00
2012,05,06,02,18,6.00
2012,05,06,02,19,6.00
2012,05,06,02,20,6.00
2012,05,06,02,21,6.00
2012,05,06,02,22,5.90
2012,05,06,02,23,5.90
2012,05,06,02,24,5.90
2012,05,06,02,25,5.90
2012,05,06,02,26,5.90
2012,05,06,02,27,5.90
2012,05,06,02,28,5.90
2012,05,06,02,29,6.00
2012,05,06,02,30,6.00
2012,05,06,02,31,5.90
2012,05,06,02,32,5.90
2012,05,06,02,33,5.90
2012,05,06,02,34,5.90
2012,05,06,02,35,5.80
2012,05,06,02,36,5.80
2012,05,06,02,37,5.80
2012,05,06,02,38,5.70
2012,05,06,02,39,5.70
2012,05,06,02,40,5.70
2012,05,06,02,41,5.70
2012,05,06,02,42,5.70
2012,05,06,02,43,5.70
2012,05,06,02,44,5.70
2012,05,06,02,45,5.70
2012,05,06,02,46,5.70
2012,05,06,02,47,5.70
2012,05,06,02,48,5.70
2012,05,06,02,49,5.70
2012,05,06,02,50,5.70
2012,05,06,02,51,5.70
2012,05,06,02,52,5.70
2012,05,06,02,53,5.70
2012,05,06,02,54,5.70
2012,05,06,02,55,5.60
2012,05,06,02,56,5.60
2012,05,06,02,57,5.60
2012,05,06,02,58,5.60
2012,05,06,02,59,5.50
2012,05,06,03,00,5.50
2012,05,06,03,01,5.50
2012,05,06,03,02,5.50
2012,05,06,03,03,5.60
2012,05,06,03,04,5.60
2012,05,06,03,05,5.60
2012,05,06,03,06,5.60
2012,05,06,03,07,5.60
2012,05,06,03,08,5.60
2012,05,06,03,09,5.60
2012,05,06,03,10,5.70
2012,05,06,03,11,5.70
2012,05,06,03,12,5.70
2012,05,06,03,13,5.70
2012,05,06,03,14,5.60
2012,05,06,03,15,5.60
2012,05,06,03,16,5.60
2012,05,06,03,17,5.50
2012,05,06,03,18,5.50
2012,05,06,03,19,5.50
2012,05,06,03,20,5.40
2012,05,06,03,21,5.40
2012,05,06,03,22,5.40
2012,05,06,03,23,5.30
2012,05,06,03,24,5.30
2012,05,06,03,25,5.30
2012,05,06,03,26,5.30
2012,05,06,03,27,5.30
2012,05,06,03,28,5.30
2012,05,06,03,29,5.30
2012,05,06,03,30,5.20
2012,05,06,03,31,5.20
2012,05,06,03,32,5.20
2012,05,06,03,33,5.20
2012,05,06,03,34,5.20
2012,05,06,03,35,5.20
2012,05,06,03,36,5.20
2012,05,06,03,37,5.20
2012,05,06,03,38,5.20
2012,05,06,03,39,5.20
2012,05,06,03,40,5.20
2012,05,06,03,41,5.20
2012,05,06,03,42,5.20
2012,05,06,03,43,5.20
2012,05,06,03,44,5.20
2012,05,06,03,45,5.20
2012,05,06,03,46,5.20
2012,05,06,03,47,5.20
2012,05,06,03,48,5.20
2012,05,06,03,49,5.20
2012,05,06,03,50,5.20
2012,05,06,03,51,5.20
2012,05,06,03,52,5.20
2012,05,06,03,53,5.20
2012,05,06,03,54,5.20
2012,05,06,03,55,5.20
2012,05,06,03,56,5.20
2012,05,06,03,57,5.20
2012,05,06,03,58,5.20
2012,05,06,03,59,5.20
2012,05,06,04,00,5.20
2012,05,06,04,01,5.20
2012,05,06,04,02,5.10
2012,05,06,04,03,5.10
2012,05,06,04,04,5.10
2012,05,06,04,05,5.10
2012,05,06,04,06,5.10
2012,05,06,04,07,5.10
2012,05,06,04,08,5.10
2012,05,06,04,09,5.00
2012,05,06,04,10,4.90
2012,05,06,04,11,4.90
2012,05,06,04,12,4.90
2012,05,06,04,13,4.90
2012,05,06,04,14,4.90
2012,05,06,04,15,4.90
2012,05,06,04,16,4.80
2012,05,06,04,17,4.80
2012,05,06,04,18,4.80
2012,05,06,04,19,4.80
2012,05,06,04,20,4.80
2012,05,06,04,21,4.80
2012,05,06,04,22,4.80
2012,05,06,04,23,4.70
2012,05,06,04,24,4.70
2012,05,06,04,25,4.60
2012,05,06,04,26,4.60
2012,05,06,04,27,4.60
2012,05,06,04,28,4.60
2012,05,06,04,29,4.60
2012,05,06,04,30,4.60
2012,05,06,04,31,4.60
2012,05,06,04,32,4.60
2012,05,06,04,33,4.60
2012,05,06,04,34,4.60
2012,05,06,04,35,4.60
2012,05,06,04,36,4.60
2012,05,06,04,37,4.60
2012,05,06,04,38,4.60
2012,05,06,04,39,4.60
2012,05,06,04,40,4.60
2012,05,06,04,41,4.50
2012,05,06,04,42,4.50
2012,05,06,04,43,4.50
2012,05,06,04,44,4.50
2012,05,06,04,45,4.40
2012,05,06,04,46,4.40
2012,05,06,04,47,4.40
2012,05,06,04,48,4.40
2012,05,06,04,49,4.40
2012,05,06,04,50,4.30
2012,05,06,04,51,4.30
2012,05,06,04,52,4.30
2012,05,06,04,53,4.30
2012,05,06,04,54,4.30
2012,05,06,04,55,4.20
2012,05,06,04,56,4.20
2012,05,06,04,57,4.30
2012,05,06,04,58,4.30
2012,05,06,04,59,4.40
2012,05,06,05,00,4.40
2012,05,06,05,01,4.40
2012,05,06,05,02,4.40
2012,05,06,05,03,4.40
2012,05,06,05,04,4.40
2012,05,06,05,05,4.50
2012,05,06,05,06,4.50
2012,05,06,05,07,4.50
2012,05,06,05,08,4.40
2012,05,06,05,09,4.40
2012,05,06,05,10,4.40
2012,05,06,05,11,4.40
2012,05,06,05,12,4.40
2012,05,06,05,13,4.40
2012,05,06,05,14,4.40
2012,05,06,05,15,4.30
2012,05,06,05,16,4.40
2012,05,06,05,17,4.40
2012,05,06,05,18,4.40
2012,05,06,05,19,4.40
2012,05,06,05,20,4.40
2012,05,06,05,21,4.40
2012,05,06,05,22,4.40
2012,05,06,05,23,4.40
2012,05,06,05,24,4.40
2012,05,06,05,25,4.40
2012,05,06,05,26,4.30
2012,05,06,05,27,4.30
2012,05,06,05,28,4.30
2012,05,06,05,29,4.30
2012,05,06,05,30,4.30
2012,05,06,05,31,4.30
2012,05,06,05,32,4.30
2012,05,06,05,33,4.30
2012,05,06,05,34,4.30
2012,05,06,05,35,4.30
2012,05,06,05,36,4.20
2012,05,06,05,37,4.20
2012,05,06,05,38,4.20
2012,05,06,05,39,4.20
2012,05,06,05,40,4.20
2012,05,06,05,41,4.20
2012,05,06,05,42,4.20
2012,05,06,05,43,4.20
2012,05,06,05,44,4.20
2012,05,06,05,45,4.20
2012,05,06,05,46,4.20
2012,05,06,05,47,4.20
2012,05,06,05,48,4.20
2012,05,06,05,49,4.20
2012,05,06,05,50,4.20
2012,05,06,05,51,4.20
2012,05,06,05,52,4.20
2012,05,06,05,53,4.10
2012,05,06,05,54,4.10
2012,05,06,05,55,4.10
2012,05,06,05,56,4.10
2012,05,06,05,57,4.10
2012,05,06,05,58,4.10
2012,05,06,05,59,4.10
2012,05,06,06,00,4.10
2012,05,06,06,01,4.10
2012,05,06,06,02,4.10
2012,05,06,06,03,4.10
2012,05,06,06,04,4.10
2012,05,06,06,05,4.10
2012,05,06,06,06,4.10
2012,05,06,06,07,4.10
2012,05,06,06,08,4.10
2012,05,06,06,09,4.10
2012,05,06,06,10,4.10
2012,05,06,06,11,4.10
2012,05,06,06,12,4.20
2012,05,06,06,13,4.20
2012,05,06,06,14,4.20
2012,05,06,06,15,4.20
2012,05,06,06,16,4.20
2012,05,06,06,17,4.20
2012,05,06,06,18,4.20
2012,05,06,06,19,4.20
2012,05,06,06,20,4.20
2012,05,06,06,21,4.20
2012,05,06,06,22,4.20
2012,05,06,06,23,4.20
2012,05,06,06,24,4.20
2012,05,06,06,25,4.30
2012,05,06,06,26,4.30
2012,05,06,06,27,4.30
2012,05,06,06,28,4.40
2012,05,06,06,29,4.40
2012,05,06,06,30,4.50
2012,05,06,06,31,4.50
2012,05,06,06,32,4.50
2012,05,06,06,33,4.50
2012,05,06,06,34,4.60
2012,05,06,06,35,4.60
2012,05,06,06,36,4.60
2012,05,06,06,37,4.60
2012,05,06,06,38,4.70
2012,05,06,06,39,4.70
2012,05,06,06,40,4.70
2012,05,06,06,41,4.80
2012,05,06,06,42,4.80
2012,05,06,06,43,4.80
2012,05,06,06,44,4.90
2012,05,06,06,45,4.90
2012,05,06,06,46,4.90
2012,05,06,06,47,4.90
2012,05,06,06,48,4.90
2012,05,06,06,49,5.00
2012,05,06,06,50,5.10
2012,05,06,06,51,5.10
2012,05,06,06,52,5.10
2012,05,06,06,53,5.10
2012,05,06,06,54,5.20
2012,05,06,06,55,5.20
2012,05,06,06,56,5.30
2012,05,06,06,57,5.30
2012,05,06,06,58,5.30
2012,05,06,06,59,5.40
2012,05,06,07,00,5.40
2012,05,06,07,01,5.50
2012,05,06,07,02,5.50
2012,05,06,07,03,5.60
2012,05,06,07,04,5.60
2012,05,06,07,05,5.70
2012,05,06,07,06,5.70
2012,05,06,07,07,5.70
2012,05,06,07,08,5.80
2012,05,06,07,09,5.80
2012,05,06,07,10,5.80
2012,05,06,07,11,5.90
2012,05,06,07,12,5.90
2012,05,06,07,13,6.00
2012,05,06,07,14,6.00
2012,05,06,07,15,6.00
2012,05,06,07,16,6.10
2012,05,06,07,17,6.10
2012,05,06,07,18,6.10
2012,05,06,07,19,6.20
2012,05,06,07,20,6.20
2012,05,06,07,21,6.20
2012,05,06,07,22,6.20
2012,05,06,07,23,6.20
2012,05,06,07,24,6.20
2012,05,06,07,25,6.20
2012,05,06,07,26,6.30
2012,05,06,07,27,6.30
2012,05,06,07,28,6.30
2012,05,06,07,29,6.40
2012,05,06,07,30,6.40
2012,05,06,07,31,6.40
2012,05,06,07,32,6.40
2012,05,06,07,33,6.40
2012,05,06,07,34,6.40
2012,05,06,07,35,6.40
2012,05,06,07,36,6.50
2012,05,06,07,37,6.60
2012,05,06,07,38,6.60
2012,05,06,07,39,6.60
2012,05,06,07,40,6.70
2012,05,06,07,41,6.70
2012,05,06,07,42,6.80
2012,05,06,07,43,6.80
2012,05,06,07,44,6.80
2012,05,06,07,45,6.90
2012,05,06,07,46,7.00
2012,05,06,07,47,7.00
2012,05,06,07,48,7.10
2012,05,06,07,49,7.10
2012,05,06,07,50,7.20
2012,05,06,07,51,7.30
2012,05,06,07,52,7.30
2012,05,06,07,53,7.40
2012,05,06,07,54,7.40
2012,05,06,07,55,7.50
2012,05,06,07,56,7.50
2012,05,06,07,57,7.50
2012,05,06,07,58,7.60
2012,05,06,07,59,7.60
2012,05,06,08,00,7.60
2012,05,06,08,01,7.60
2012,05,06,08,02,7.70
2012,05,06,08,03,7.70
2012,05,06,08,04,7.80
2012,05,06,08,05,7.80
2012,05,06,08,06,7.80
2012,05,06,08,07,7.90
2012,05,06,08,08,7.90
2012,05,06,08,09,7.90
2012,05,06,08,10,8.00
2012,05,06,08,11,8.00
2012,05,06,08,12,8.10
2012,05,06,08,13,8.10
2012,05,06,08,14,8.10
2012,05,06,08,15,8.20
2012,05,06,08,16,8.20
2012,05,06,08,17,8.20
2012,05,06,08,18,8.20
2012,05,06,08,19,8.30
2012,05,06,08,20,8.40
2012,05,06,08,21,8.50
2012,05,06,08,22,8.50
2012,05,06,08,23,8.70
2012,05,06,08,24,8.80
2012,05,06,08,25,8.90
2012,05,06,08,26,8.90
2012,05,06,08,27,9.00
2012,05,06,08,28,9.00
2012,05,06,08,29,9.00
2012,05,06,08,30,9.10
2012,05,06,08,31,9.10
2012,05,06,08,32,9.20
2012,05,06,08,33,9.20
2012,05,06,08,34,9.30
2012,05,06,08,35,9.40
2012,05,06,08,36,9.40
2012,05,06,08,37,9.50
2012,05,06,08,38,9.60
2012,05,06,08,39,9.70
2012,05,06,08,40,9.80
2012,05,06,08,41,9.90
2012,05,06,08,42,9.90
2012,05,06,08,43,9.90
2012,05,06,08,44,10.00
2012,05,06,08,45,10.10
2012,05,06,08,46,10.10
2012,05,06,08,47,10.10
2012,05,06,08,48,10.10
2012,05,06,08,49,10.00
2012,05,06,08,50,9.90
2012,05,06,08,51,9.80
2012,05,06,08,52,9.80
2012,05,06,08,53,9.80
2012,05,06,08,54,9.90
2012,05,06,08,55,9.90
2012,05,06,08,56,9.90
2012,05,06,08,57,9.90
2012,05,06,08,58,9.90
2012,05,06,08,59,10.00
2012,05,06,09,00,10.10
2012,05,06,09,01,10.10
2012,05,06,09,02,10.10
2012,05,06,09,03,10.10
2012,05,06,09,04,10.10
2012,05,06,09,05,10.10
2012,05,06,09,06,10.10
2012,05,06,09,07,10.10
2012,05,06,09,08,10.10
2012,05,06,09,09,10.10
2012,05,06,09,10,10.10
2012,05,06,09,11,10.20
2012,05,06,09,12,10.20
2012,05,06,09,13,10.20
2012,05,06,09,14,10.10
2012,05,06,09,15,10.10
2012,05,06,09,16,10.20
2012,05,06,09,17,10.30
2012,05,06,09,18,10.30
2012,05,06,09,19,10.30
2012,05,06,09,20,10.20
2012,05,06,09,21,10.10
2012,05,06,09,22,10.20
2012,05,06,09,23,10.20
2012,05,06,09,24,10.20
2012,05,06,09,25,10.20
2012,05,06,09,26,10.20
2012,05,06,09,27,10.30
2012,05,06,09,28,10.20
2012,05,06,09,29,10.20
2012,05,06,09,30,10.30
2012,05,06,09,31,10.40
2012,05,06,09,32,10.50
2012,05,06,09,33,10.60
2012,05,06,09,34,10.60
2012,05,06,09,35,10.60
2012,05,06,09,36,10.60
2012,05,06,09,37,10.40
2012,05,06,09,38,10.40
2012,05,06,09,39,10.30
2012,05,06,09,40,10.30
2012,05,06,09,41,10.20
2012,05,06,09,42,10.20
2012,05,06,09,43,10.20
2012,05,06,09,44,10.20
2012,05,06,09,45,10.30
2012,05,06,09,46,10.40
2012,05,06,09,47,10.60
2012,05,06,09,48,10.70
2012,05,06,09,49,10.70
2012,05,06,09,50,10.60
2012,05,06,09,51,10.70
2012,05,06,09,52,10.90
2012,05,06,09,53,10.90
2012,05,06,09,54,10.90
2012,05,06,09,55,10.90
2012,05,06,09,56,10.90
2012,05,06,09,57,10.90
2012,05,06,09,58,11.00
2012,05,06,09,59,11.10
2012,05,06,10,00,11.10
2012,05,06,10,01,11.00
2012,05,06,10,02,10.70
2012,05,06,10,03,10.40
2012,05,06,10,04,10.30
2012,05,06,10,05,10.20
2012,05,06,10,06,10.10
2012,05,06,10,07,10.10
2012,05,06,10,08,10.10
2012,05,06,10,09,10.10
2012,05,06,10,10,10.10
2012,05,06,10,11,10.10
2012,05,06,10,12,10.00
2012,05,06,10,13,10.00
2012,05,06,10,14,10.10
2012,05,06,10,15,10.30
2012,05,06,10,16,10.60
2012,05,06,10,17,10.70
2012,05,06,10,18,10.70
2012,05,06,10,19,10.70
2012,05,06,10,20,10.70
2012,05,06,10,21,10.60
2012,05,06,10,22,10.60
2012,05,06,10,23,10.70
2012,05,06,10,24,10.80
2012,05,06,10,25,10.90
2012,05,06,10,26,11.10
2012,05,06,10,27,11.00
2012,05,06,10,28,10.90
2012,05,06,10,29,11.10
2012,05,06,10,30,11.10
2012,05,06,10,31,11.10
2012,05,06,10,32,11.10
2012,05,06,10,33,11.10
2012,05,06,10,34,11.10
2012,05,06,10,35,11.20
2012,05,06,10,36,11.30
2012,05,06,10,37,11.40
2012,05,06,10,38,11.40
2012,05,06,10,39,11.40
2012,05,06,10,40,11.40
2012,05,06,10,41,11.60
2012,05,06,10,42,11.60
2012,05,06,10,43,11.80
2012,05,06,10,44,11.80
2012,05,06,10,45,11.80
2012,05,06,10,46,11.90
2012,05,06,10,47,12.00
2012,05,06,10,48,12.10
2012,05,06,10,49,12.30
2012,05,06,10,50,12.30
2012,05,06,10,51,12.30
2012,05,06,10,52,12.20
2012,05,06,10,53,12.10
2012,05,06,10,54,12.10
2012,05,06,10,55,12.10
2012,05,06,10,56,12.10
2012,05,06,10,57,12.30
2012,05,06,10,58,12.40
2012,05,06,10,59,12.40
2012,05,06,11,00,12.10
2012,05,06,11,01,11.70
2012,05,06,11,02,11.60
2012,05,06,11,03,11.60
2012,05,06,11,04,11.60
2012,05,06,11,05,11.60
2012,05,06,11,06,11.40
2012,05,06,11,07,11.30
2012,05,06,11,08,11.30
2012,05,06,11,09,11.30
2012,05,06,11,10,11.20
2012,05,06,11,11,11.20
2012,05,06,11,12,11.20
2012,05,06,11,13,11.20
2012,05,06,11,14,11.30
2012,05,06,11,15,11.40
2012,05,06,11,16,11.40
2012,05,06,11,17,11.40
2012,05,06,11,18,11.40
2012,05,06,11,19,11.20
2012,05,06,11,20,11.00
2012,05,06,11,21,10.90
2012,05,06,11,22,10.90
2012,05,06,11,23,10.80
2012,05,06,11,24,11.00
2012,05,06,11,25,11.10
2012,05,06,11,26,11.20
2012,05,06,11,27,11.40
2012,05,06,11,28,11.60
2012,05,06,11,29,11.60
2012,05,06,11,30,11.70
2012,05,06,11,31,11.80
2012,05,06,11,32,11.70
2012,05,06,11,33,11.50
2012,05,06,11,34,11.40
2012,05,06,11,35,11.10
2012,05,06,11,36,11.10
2012,05,06,11,37,11.20
2012,05,06,11,38,11.20
2012,05,06,11,39,11.20
2012,05,06,11,40,11.20
2012,05,06,11,41,11.30
2012,05,06,11,42,11.40
2012,05,06,11,43,11.40
2012,05,06,11,44,11.30
2012,05,06,11,45,11.10
2012,05,06,11,46,11.10
2012,05,06,11,47,11.10
2012,05,06,11,48,11.10
2012,05,06,11,49,11.10
2012,05,06,11,50,11.20
2012,05,06,11,51,11.30
2012,05,06,11,52,11.50
2012,05,06,11,53,11.60
2012,05,06,11,54,11.70
2012,05,06,11,55,11.80
2012,05,06,11,56,11.90
2012,05,06,11,57,12.00
2012,05,06,11,58,11.90
2012,05,06,11,59,12.00
2012,05,06,12,00,12.00
2012,05,06,12,01,12.00
2012,05,06,12,02,11.80
2012,05,06,12,03,11.50
2012,05,06,12,04,11.40
2012,05,06,12,05,11.50
2012,05,06,12,06,11.60
2012,05,06,12,07,11.60
2012,05,06,12,08,11.60
2012,05,06,12,09,11.60
2012,05,06,12,10,11.40
2012,05,06,12,11,11.40
2012,05,06,12,12,11.30
2012,05,06,12,13,11.20
2012,05,06,12,14,11.10
2012,05,06,12,15,11.20
2012,05,06,12,16,11.30
2012,05,06,12,17,11.30
2012,05,06,12,18,11.30
2012,05,06,12,19,11.40
2012,05,06,12,20,11.50
2012,05,06,12,21,11.50
2012,05,06,12,22,11.30
2012,05,06,12,23,11.20
2012,05,06,12,24,11.20
2012,05,06,12,25,11.30
2012,05,06,12,26,11.30
2012,05,06,12,27,11.10
2012,05,06,12,28,11.10
2012,05,06,12,29,11.00
2012,05,06,12,30,10.90
2012,05,06,12,31,10.90
2012,05,06,12,32,11.10
2012,05,06,12,33,11.10
2012,05,06,12,34,11.30
2012,05,06,12,35,11.50
2012,05,06,12,36,11.70
2012,05,06,12,37,11.80
2012,05,06,12,38,11.80
2012,05,06,12,39,11.80
2012,05,06,12,40,11.70
2012,05,06,12,41,11.70
2012,05,06,12,42,11.60
2012,05,06,12,43,11.60
2012,05,06,12,44,11.60
2012,05,06,12,45,11.60
2012,05,06,12,46,11.80
2012,05,06,12,47,11.70
2012,05,06,12,48,11.70
2012,05,06,12,49,11.80
2012,05,06,12,50,11.90
2012,05,06,12,51,12.00
2012,05,06,12,52,12.20
2012,05,06,12,53,12.40
2012,05,06,12,54,12.60
2012,05,06,12,55,12.50
2012,05,06,12,56,12.40
2012,05,06,12,57,12.30
2012,05,06,12,58,12.10
2012,05,06,12,59,11.90
2012,05,06,13,00,11.80
2012,05,06,13,01,11.70
2012,05,06,13,02,11.60
2012,05,06,13,03,11.70
2012,05,06,13,04,11.80
2012,05,06,13,05,12.00
2012,05,06,13,06,12.20
2012,05,06,13,07,12.30
2012,05,06,13,08,12.30
2012,05,06,13,09,12.20
2012,05,06,13,10,12.30
2012,05,06,13,11,12.40
2012,05,06,13,12,12.50
2012,05,06,13,13,12.50
2012,05,06,13,14,12.60
2012,05,06,13,15,12.60
2012,05,06,13,16,12.50
2012,05,06,13,17,12.60
2012,05,06,13,18,12.60
2012,05,06,13,19,12.30
2012,05,06,13,20,12.00
2012,05,06,13,21,11.70
2012,05,06,13,22,11.50
2012,05,06,13,23,11.40
2012,05,06,13,24,11.40
2012,05,06,13,25,11.40
2012,05,06,13,26,11.40
2012,05,06,13,27,11.20
2012,05,06,13,28,11.20
2012,05,06,13,29,11.20
2012,05,06,13,30,11.20
2012,05,06,13,31,11.20
2012,05,06,13,32,11.30
2012,05,06,13,33,11.50
2012,05,06,13,34,11.70
2012,05,06,13,35,11.80
2012,05,06,13,36,11.90
2012,05,06,13,37,12.00
2012,05,06,13,38,12.00
2012,05,06,13,39,12.00
2012,05,06,13,40,12.10
2012,05,06,13,41,12.20
2012,05,06,13,42,12.10
2012,05,06,13,43,12.10
2012,05,06,13,44,12.30
2012,05,06,13,45,12.40
2012,05,06,13,46,12.50
2012,05,06,13,47,12.40
2012,05,06,13,48,12.30
2012,05,06,13,49,12.40
2012,05,06,13,50,12.50
2012,05,06,13,51,12.60
2012,05,06,13,52,12.70
2012,05,06,13,53,12.70
2012,05,06,13,54,12.70
2012,05,06,13,55,12.80
2012,05,06,13,56,12.70
2012,05,06,13,57,12.60
2012,05,06,13,58,12.50
2012,05,06,13,59,12.30
2012,05,06,14,00,12.20
2012,05,06,14,01,12.00
2012,05,06,14,02,11.80
2012,05,06,14,03,11.70
2012,05,06,14,04,11.80
2012,05,06,14,05,11.80
2012,05,06,14,06,11.90
2012,05,06,14,07,11.90
2012,05,06,14,08,11.80
2012,05,06,14,09,11.90
2012,05,06,14,10,12.00
2012,05,06,14,11,12.00
2012,05,06,14,12,11.90
2012,05,06,14,13,11.80
2012,05,06,14,14,11.70
2012,05,06,14,15,11.60
2012,05,06,14,16,11.60
2012,05,06,14,17,11.60
2012,05,06,14,18,11.60
2012,05,06,14,19,11.80
2012,05,06,14,20,11.90
2012,05,06,14,21,11.90
2012,05,06,14,22,11.80
2012,05,06,14,23,11.80
2012,05,06,14,24,11.90
2012,05,06,14,25,12.00
2012,05,06,14,26,12.10
2012,05,06,14,27,12.30
2012,05,06,14,28,12.40
2012,05,06,14,29,12.60
2012,05,06,14,30,12.60
2012,05,06,14,31,12.70
2012,05,06,14,32,12.70
2012,05,06,14,33,12.60
2012,05,06,14,34,12.50
2012,05,06,14,35,12.50
2012,05,06,14,36,12.40
2012,05,06,14,37,12.20
2012,05,06,14,38,12.00
2012,05,06,14,39,11.90
2012,05,06,14,40,11.90
2012,05,06,14,41,11.90
2012,05,06,14,42,12.00
2012,05,06,14,43,12.10
2012,05,06,14,44,12.10
2012,05,06,14,45,12.00
2012,05,06,14,46,11.90
2012,05,06,14,47,11.90
2012,05,06,14,48,11.90
2012,05,06,14,49,12.00
2012,05,06,14,50,12.00
2012,05,06,14,51,12.10
2012,05,06,14,52,12.20
2012,05,06,14,53,12.20
2012,05,06,14,54,12.20
2012,05,06,14,55,12.20
2012,05,06,14,56,12.10
2012,05,06,14,57,12.20
2012,05,06,14,58,12.30
2012,05,06,14,59,12.30
2012,05,06,15,00,12.30
2012,05,06,15,01,12.40
2012,05,06,15,02,12.50
2012,05,06,15,03,12.50
2012,05,06,15,04,12.50
2012,05,06,15,05,12.30
2012,05,06,15,06,12.10
2012,05,06,15,07,11.80
2012,05,06,15,08,11.70
2012,05,06,15,09,11.60
2012,05,06,15,10,11.70
2012,05,06,15,11,11.80
2012,05,06,15,12,11.80
2012,05,06,15,13,12.00
2012,05,06,15,14,12.10
2012,05,06,15,15,12.20
2012,05,06,15,16,12.20
2012,05,06,15,17,12.30
2012,05,06,15,18,12.20
2012,05,06,15,19,12.20
2012,05,06,15,20,12.00
2012,05,06,15,21,11.90
2012,05,06,15,22,12.00
2012,05,06,15,23,12.10
2012,05,06,15,24,12.10
2012,05,06,15,25,12.30
2012,05,06,15,26,12.40
2012,05,06,15,27,12.60
2012,05,06,15,28,12.60
2012,05,06,15,29,12.50
2012,05,06,15,30,12.60
2012,05,06,15,31,12.70
2012,05,06,15,32,12.60
2012,05,06,15,33,12.70
2012,05,06,15,34,12.60
2012,05,06,15,35,12.70
2012,05,06,15,36,12.80
2012,05,06,15,37,12.80
2012,05,06,15,38,12.70
2012,05,06,15,39,12.80
2012,05,06,15,40,12.90
2012,05,06,15,41,12.90
2012,05,06,15,42,13.00
2012,05,06,15,43,13.00
2012,05,06,15,44,13.00
2012,05,06,15,45,12.90
2012,05,06,15,46,13.00
2012,05,06,15,47,13.00
2012,05,06,15,48,13.00
2012,05,06,15,49,13.00
2012,05,06,15,50,13.00
2012,05,06,15,51,12.90
2012,05,06,15,52,12.90
2012,05,06,15,53,12.90
2012,05,06,15,54,13.00
2012,05,06,15,55,13.10
2012,05,06,15,56,13.20
2012,05,06,15,57,13.20
2012,05,06,15,58,13.10
2012,05,06,15,59,13.10
2012,05,06,16,00,13.00
2012,05,06,16,01,13.00
2012,05,06,16,02,13.10
2012,05,06,16,03,13.10
2012,05,06,16,04,13.10
2012,05,06,16,05,13.00
2012,05,06,16,06,12.90
2012,05,06,16,07,12.80
2012,05,06,16,08,12.80
2012,05,06,16,09,12.90
2012,05,06,16,10,13.00
2012,05,06,16,11,13.20
2012,05,06,16,12,13.40
2012,05,06,16,13,13.50
2012,05,06,16,14,13.70
2012,05,06,16,15,13.80
2012,05,06,16,16,13.70
2012,05,06,16,17,13.70
2012,05,06,16,18,13.70
2012,05,06,16,19,13.80
2012,05,06,16,20,13.80
2012,05,06,16,21,13.80
2012,05,06,16,22,13.80
2012,05,06,16,23,13.60
2012,05,06,16,24,13.50
2012,05,06,16,25,13.40
2012,05,06,16,26,13.40
2012,05,06,16,27,13.40
2012,05,06,16,28,13.40
2012,05,06,16,29,13.40
2012,05,06,16,30,13.40
2012,05,06,16,31,13.30
2012,05,06,16,32,13.30
2012,05,06,16,33,13.40
2012,05,06,16,34,13.50
2012,05,06,16,35,13.60
2012,05,06,16,36,13.70
2012,05,06,16,37,13.80
2012,05,06,16,38,13.90
2012,05,06,16,39,13.90
2012,05,06,16,40,13.80
2012,05,06,16,41,13.90
2012,05,06,16,42,13.80
2012,05,06,16,43,13.80
2012,05,06,16,44,13.90
2012,05,06,16,45,14.00
2012,05,06,16,46,14.00
2012,05,06,16,47,13.90
2012,05,06,16,48,13.90
2012,05,06,16,49,13.80
2012,05,06,16,50,13.70
2012,05,06,16,51,13.80
2012,05,06,16,52,13.80
2012,05,06,16,53,13.90
2012,05,06,16,54,13.90
2012,05,06,16,55,13.90
2012,05,06,16,56,14.00
2012,05,06,16,57,14.10
2012,05,06,16,58,14.20
2012,05,06,16,59,14.20
2012,05,06,17,00,14.10
2012,05,06,17,01,14.10
2012,05,06,17,02,14.20
2012,05,06,17,03,14.20
2012,05,06,17,04,14.10
2012,05,06,17,05,14.00
2012,05,06,17,06,13.90
2012,05,06,17,07,13.90
2012,05,06,17,08,13.90
2012,05,06,17,09,14.00
2012,05,06,17,10,14.10
2012,05,06,17,11,14.20
2012,05,06,17,12,14.20
2012,05,06,17,13,14.30
2012,05,06,17,14,14.30
2012,05,06,17,15,14.30
2012,05,06,17,16,14.40
2012,05,06,17,17,14.40
2012,05,06,17,18,14.30
2012,05,06,17,19,14.30
2012,05,06,17,20,14.10
2012,05,06,17,21,13.80
2012,05,06,17,22,13.60
2012,05,06,17,23,13.40
2012,05,06,17,24,13.30
2012,05,06,17,25,13.20
2012,05,06,17,26,13.10
2012,05,06,17,27,13.10
2012,05,06,17,28,13.10
2012,05,06,17,29,13.10
2012,05,06,17,30,13.10
2012,05,06,17,31,13.20
2012,05,06,17,32,13.20
2012,05,06,17,33,13.30
2012,05,06,17,34,13.40
2012,05,06,17,35,13.50
2012,05,06,17,36,13.60
2012,05,06,17,37,13.70
2012,05,06,17,38,13.70
2012,05,06,17,39,13.70
2012,05,06,17,40,13.70
2012,05,06,17,41,13.70
2012,05,06,17,42,13.70